When you browse on this site, cookies collect data to enhance your experience and personalize the content and advertising you see.
Visit our Privacy Policy to learn more. By continuing to use the site, you agree to this use of cookies and data.

Meteo pe oră la Dziecioly

Astăzi, 24 Septembrie, Joi

Timp Temperatura Precipitaţii Vânt Presiune Umiditate
00:00 +18°C° 0 mm 3 m/s 741 mmHg 72%
01:00 +18°C° 0 mm 3 m/s 741 mmHg 74%
02:00 +17°C° 0 mm 3 m/s 741 mmHg 75%
03:00 +17°C° 0 mm 3 m/s 741 mmHg 76%
04:00 +17°C° 0 mm 3 m/s 741 mmHg 78%
05:00 +17°C° 0 mm 3 m/s 741 mmHg 79%
06:00 +17°C° 0 mm 3 m/s 741 mmHg 81%
07:00 +17°C° 0 mm 3 m/s 742 mmHg 83%
08:00 +19°C° 0 mm 3 m/s 742 mmHg 75%
09:00 +21°C° 0 mm 3 m/s 742 mmHg 67%
10:00 +22°C° 0 mm 3 m/s 743 mmHg 60%
11:00 +24°C° 0 mm 3 m/s 742 mmHg 56%
12:00 +24°C° 0 mm 3 m/s 742 mmHg 53%
13:00 +25°C° 0 mm 3 m/s 742 mmHg 50%
14:00 +25°C° 0 mm 3 m/s 742 mmHg 50%
15:00 +25°C° 0 mm 3 m/s 742 mmHg 51%
16:00 +25°C° 0 mm 2 m/s 742 mmHg 52%
17:00 +24°C° 0 mm 2 m/s 742 mmHg 57%
18:00 +21°C° 0 mm 2 m/s 742 mmHg 62%
19:00 +20°C° 0 mm 2 m/s 742 mmHg 67%
20:00 +19°C° 0 mm 2 m/s 742 mmHg 68%
21:00 +19°C° 0 mm 2 m/s 742 mmHg 70%
22:00 +19°C° 0 mm 1 m/s 742 mmHg 71%
23:00 +18°C° 0 mm 2 m/s 742 mmHg 73%

Mâine, 25 Septembrie, Vineri

Timp Temperatura Precipitaţii Vânt Presiune Umiditate
00:00 +17°C° 0 mm 2 m/s 741 mmHg 74%
01:00 +17°C° 0 mm 2 m/s 741 mmHg 76%
02:00 +17°C° 0 mm 2 m/s 740 mmHg 78%
03:00 +17°C° 0 mm 3 m/s 739 mmHg 79%
04:00 +16°C° 0 mm 3 m/s 739 mmHg 81%
05:00 +17°C° 0 mm 4 m/s 738 mmHg 78%
06:00 +17°C° 0 mm 5 m/s 737 mmHg 76%
07:00 +17°C° 0 mm 6 m/s 737 mmHg 73%
08:00 +20°C° 0 mm 6 m/s 736 mmHg 68%
09:00 +21°C° 0 mm 7 m/s 736 mmHg 62%
10:00 +22°C° 0 mm 7 m/s 736 mmHg 57%
11:00 +21°C° 0.2 mm 7 m/s 735 mmHg 62%
12:00 +21°C° 0.2 mm 6 m/s 735 mmHg 68%
13:00 +20°C° 0.2 mm 6 m/s 735 mmHg 73%
14:00 +19°C° 0.6 mm 6 m/s 735 mmHg 77%
15:00 +17°C° 0.6 mm 6 m/s 735 mmHg 81%
16:00 +17°C° 0.6 mm 6 m/s 734 mmHg 85%
17:00 +16°C° 0.3 mm 6 m/s 735 mmHg 86%
18:00 +15°C° 0.3 mm 5 m/s 735 mmHg 87%
19:00 +14°C° 0.3 mm 4 m/s 735 mmHg 88%
20:00 +14°C° 0 mm 4 m/s 735 mmHg 89%
21:00 +14°C° 0 mm 3 m/s 736 mmHg 89%
22:00 +14°C° 0 mm 3 m/s 736 mmHg 89%
23:00 +13°C° 0 mm 3 m/s 736 mmHg 89%

Poimâine, 26 Septembrie, Sâmbătă

Timp Temperatura Precipitaţii Vânt Presiune Umiditate
00:00 +13°C° 0 mm 3 m/s 736 mmHg 88%
01:00 +13°C° 0 mm 4 m/s 736 mmHg 87%
02:00 +13°C° 0.2 mm 4 m/s 735 mmHg 88%
03:00 +13°C° 0.2 mm 4 m/s 735 mmHg 89%
04:00 +12°C° 0.2 mm 4 m/s 735 mmHg 90%
05:00 +13°C° 0.2 mm 4 m/s 735 mmHg 91%
06:00 +13°C° 0.2 mm 5 m/s 734 mmHg 91%
07:00 +13°C° 0.2 mm 5 m/s 734 mmHg 92%
08:00 +14°C° 0.1 mm 5 m/s 734 mmHg 89%
09:00 +15°C° 0.1 mm 5 m/s 733 mmHg 87%
10:00 +16°C° 0.1 mm 5 m/s 733 mmHg 85%
11:00 +18°C° 0.9 mm 4 m/s 733 mmHg 84%
12:00 +18°C° 0.9 mm 4 m/s 733 mmHg 84%
13:00 +19°C° 0.9 mm 3 m/s 732 mmHg 83%
14:00 +19°C° 0.7 mm 3 m/s 732 mmHg 83%
15:00 +19°C° 0.7 mm 4 m/s 732 mmHg 83%
16:00 +19°C° 0.7 mm 4 m/s 733 mmHg 83%
17:00 +17°C° 0.1 mm 4 m/s 733 mmHg 85%
18:00 +14°C° 0.1 mm 4 m/s 733 mmHg 88%
19:00 +13°C° 0.1 mm 4 m/s 734 mmHg 90%
20:00 +12°C° 0.2 mm 4 m/s 734 mmHg 91%
21:00 +12°C° 0.2 mm 4 m/s 734 mmHg 91%
22:00 +11°C° 0.2 mm 4 m/s 735 mmHg 92%
23:00 +11°C° 2.8 mm 4 m/s 734 mmHg 93%

27 Septembrie, Duminică

Timp Temperatura Precipitaţii Vânt Presiune Umiditate
00:00 +10°C° 2.8 mm 5 m/s 734 mmHg 94%
01:00 +9°C° 2.8 mm 5 m/s 734 mmHg 95%
02:00 +9°C° 3.2 mm 5 m/s 734 mmHg 95%
03:00 +9°C° 3.2 mm 6 m/s 734 mmHg 95%
04:00 +9°C° 3.2 mm 6 m/s 734 mmHg 95%
05:00 +9°C° 1.7 mm 6 m/s 734 mmHg 94%
06:00 +9°C° 1.7 mm 7 m/s 734 mmHg 94%
07:00 +9°C° 1.7 mm 7 m/s 734 mmHg 93%
08:00 +9°C° 0.8 mm 7 m/s 734 mmHg 93%
09:00 +9°C° 0.8 mm 7 m/s 734 mmHg 93%
10:00 +10°C° 0.8 mm 7 m/s 734 mmHg 93%
11:00 +9°C° 2.6 mm 7 m/s 734 mmHg 93%
12:00 +9°C° 2.6 mm 7 m/s 734 mmHg 93%
13:00 +9°C° 2.6 mm 7 m/s 734 mmHg 94%
14:00 +9°C° 1.2 mm 7 m/s 735 mmHg 93%
15:00 +9°C° 1.2 mm 7 m/s 735 mmHg 92%
16:00 +8°C° 1.2 mm 7 m/s 735 mmHg 92%
17:00 +8°C° 1.4 mm 7 m/s 735 mmHg 92%
18:00 +8°C° 1.4 mm 7 m/s 736 mmHg 93%
19:00 +8°C° 1.4 mm 6 m/s 736 mmHg 93%
20:00 +8°C° 0.4 mm 6 m/s 737 mmHg 93%
21:00 +8°C° 0.4 mm 5 m/s 737 mmHg 93%
22:00 +8°C° 0.4 mm 5 m/s 737 mmHg 93%
23:00 +8°C° 0.2 mm 5 m/s 737 mmHg 93%

28 Septembrie, Luni

Timp Temperatura Precipitaţii Vânt Presiune Umiditate
00:00 +8°C° 0.2 mm 6 m/s 737 mmHg 92%
01:00 +8°C° 0.2 mm 6 m/s 737 mmHg 92%
02:00 +8°C° 0.1 mm 6 m/s 738 mmHg 91%
03:00 +8°C° 0.1 mm 5 m/s 738 mmHg 91%
04:00 +8°C° 0.1 mm 5 m/s 738 mmHg 90%
05:00 +8°C° 0 mm 5 m/s 738 mmHg 89%
06:00 +8°C° 0 mm 6 m/s 739 mmHg 88%
07:00 +8°C° 0 mm 6 m/s 739 mmHg 87%
08:00 +8°C° 0 mm 6 m/s 739 mmHg 84%
09:00 +9°C° 0 mm 5 m/s 740 mmHg 81%
10:00 +10°C° 0 mm 5 m/s 740 mmHg 79%
11:00 +10°C° 0 mm 5 m/s 740 mmHg 77%
12:00 +10°C° 0 mm 5 m/s 741 mmHg 75%
13:00 +11°C° 0 mm 6 m/s 741 mmHg 72%
14:00 +12°C° 0 mm 5 m/s 741 mmHg 71%
15:00 +12°C° 0 mm 5 m/s 741 mmHg 70%
16:00 +12°C° 0 mm 5 m/s 741 mmHg 69%
17:00 +10°C° 0 mm 5 m/s 741 mmHg 70%
18:00 +11°C° 0 mm 4 m/s 742 mmHg 71%
19:00 +10°C° 0 mm 4 m/s 742 mmHg 72%
20:00 +10°C° 0 mm 4 m/s 742 mmHg 73%
21:00 +9°C° 0 mm 3 m/s 742 mmHg 74%
22:00 +9°C° 0 mm 3 m/s 742 mmHg 75%
23:00 +8°C° 0 mm 3 m/s 742 mmHg 77%

29 Septembrie, Marţi

Timp Temperatura Precipitaţii Vânt Presiune Umiditate
00:00 +8°C° 0 mm 3 m/s 742 mmHg 79%
01:00 +8°C° 0 mm 3 m/s 742 mmHg 80%
02:00 +8°C° 0 mm 3 m/s 742 mmHg 81%
03:00 +8°C° 0 mm 3 m/s 742 mmHg 81%
04:00 +7°C° 0 mm 3 m/s 742 mmHg 81%
05:00 +8°C° 0 mm 2 m/s 742 mmHg 80%
06:00 +8°C° 0 mm 2 m/s 742 mmHg 79%
07:00 +10°C° 0 mm 1 m/s 742 mmHg 78%
08:00 +11°C° 0 mm 1 m/s 742 mmHg 73%
09:00 +12°C° 0 mm 1 m/s 743 mmHg 69%
10:00 +13°C° 0 mm 1 m/s 743 mmHg 64%
11:00 +14°C° 0 mm 1 m/s 743 mmHg 62%
12:00 +15°C° 0 mm 1 m/s 743 mmHg 60%
13:00 +15°C° 0 mm 1 m/s 743 mmHg 57%
14:00 +15°C° 0 mm 1 m/s 743 mmHg 59%
15:00 +15°C° 0 mm 2 m/s 743 mmHg 61%
16:00 +15°C° 0 mm 2 m/s 743 mmHg 62%
17:00 +14°C° 0 mm 2 m/s 744 mmHg 65%
18:00 +14°C° 0 mm 2 m/s 744 mmHg 68%
19:00 +13°C° 0 mm 2 m/s 744 mmHg 70%
20:00 +13°C° 0 mm 2 m/s 745 mmHg 73%
21:00 +11°C° 0 mm 3 m/s 745 mmHg 75%
22:00 +11°C° 0 mm 3 m/s 745 mmHg 77%
23:00 +10°C° 0 mm 3 m/s 745 mmHg 79%
Arată mai mult